When you browse on this site, cookies collect data to enhance your experience and personalize the content and advertising you see.
Visit our Privacy Policy to learn more. By continuing to use the site, you agree to this use of cookies and data.
  • In Hungary
  • List of Countries
  • For 7 days
  • Water Temperature
  • Weather Map
  • News
  • Weather Widgets
  • user-avatar
    Login

    Hourly Weather Albena

    Today, 4 June, Thursday

    Time Temperature Precipitation Wind Pressure Humidity
    00:00 +11°C° 0.2 mm 3 mps 741 mmHg 88%
    01:00 +11°C° 0.2 mm 3 mps 741 mmHg 88%
    02:00 +11°C° 0.2 mm 3 mps 741 mmHg 87%
    03:00 +11°C° 0.1 mm 3 mps 741 mmHg 88%
    04:00 +10°C° 0.1 mm 3 mps 741 mmHg 88%
    05:00 +10°C° 0.1 mm 2 mps 741 mmHg 88%
    06:00 +13°C° 0 mm 2 mps 741 mmHg 83%
    07:00 +14°C° 0 mm 3 mps 741 mmHg 77%
    08:00 +17°C° 0 mm 3 mps 741 mmHg 72%
    09:00 +19°C° 0 mm 3 mps 741 mmHg 65%
    10:00 +20°C° 0 mm 3 mps 742 mmHg 59%
    11:00 +22°C° 0 mm 4 mps 742 mmHg 52%
    12:00 +22°C° 0.1 mm 4 mps 742 mmHg 53%
    13:00 +23°C° 0.1 mm 4 mps 742 mmHg 53%
    14:00 +23°C° 0.1 mm 4 mps 742 mmHg 54%
    15:00 +23°C° 0.1 mm 5 mps 742 mmHg 56%
    16:00 +23°C° 0.1 mm 5 mps 742 mmHg 58%
    17:00 +23°C° 0.1 mm 5 mps 741 mmHg 60%
    18:00 +22°C° 0 mm 4 mps 742 mmHg 65%
    19:00 +20°C° 0 mm 4 mps 742 mmHg 70%
    20:00 +18°C° 0 mm 4 mps 742 mmHg 75%
    21:00 +18°C° 0 mm 4 mps 742 mmHg 77%
    22:00 +17°C° 0 mm 4 mps 742 mmHg 79%
    23:00 +15°C° 0 mm 4 mps 742 mmHg 81%

    Tomorrow, 5 June, Friday

    Time Temperature Precipitation Wind Pressure Humidity
    00:00 +15°C° 0 mm 4 mps 742 mmHg 82%
    01:00 +14°C° 0 mm 4 mps 742 mmHg 84%
    02:00 +14°C° 0 mm 4 mps 742 mmHg 85%
    03:00 +14°C° 0 mm 4 mps 742 mmHg 86%
    04:00 +14°C° 0 mm 4 mps 742 mmHg 87%
    05:00 +13°C° 0 mm 4 mps 742 mmHg 87%
    06:00 +15°C° 0 mm 5 mps 742 mmHg 83%
    07:00 +17°C° 0 mm 5 mps 743 mmHg 78%
    08:00 +20°C° 0 mm 6 mps 743 mmHg 74%
    09:00 +21°C° 0 mm 7 mps 743 mmHg 70%
    10:00 +23°C° 0 mm 7 mps 743 mmHg 65%
    11:00 +24°C° 0 mm 8 mps 743 mmHg 61%
    12:00 +26°C° 0 mm 8 mps 743 mmHg 59%
    13:00 +26°C° 0 mm 8 mps 742 mmHg 57%
    14:00 +27°C° 0 mm 8 mps 742 mmHg 55%
    15:00 +26°C° 0 mm 7 mps 742 mmHg 56%
    16:00 +26°C° 0 mm 7 mps 742 mmHg 57%
    17:00 +24°C° 0 mm 7 mps 741 mmHg 58%
    18:00 +23°C° 0 mm 6 mps 742 mmHg 61%
    19:00 +21°C° 0 mm 6 mps 742 mmHg 64%
    20:00 +19°C° 0 mm 5 mps 742 mmHg 67%
    21:00 +19°C° 0 mm 5 mps 742 mmHg 64%
    22:00 +17°C° 0 mm 5 mps 742 mmHg 62%
    23:00 +16°C° 0 mm 5 mps 742 mmHg 59%

    Day after tomorrow, 6 June, Saturday

    Time Temperature Precipitation Wind Pressure Humidity
    00:00 +16°C° 0 mm 5 mps 742 mmHg 63%
    01:00 +15°C° 0 mm 5 mps 742 mmHg 66%
    02:00 +15°C° 0 mm 5 mps 742 mmHg 69%
    03:00 +15°C° 0 mm 4 mps 742 mmHg 70%
    04:00 +15°C° 0 mm 4 mps 742 mmHg 72%
    05:00 +14°C° 0 mm 4 mps 742 mmHg 73%
    06:00 +17°C° 0 mm 4 mps 742 mmHg 69%
    07:00 +18°C° 0 mm 4 mps 742 mmHg 65%
    08:00 +20°C° 0 mm 4 mps 743 mmHg 61%
    09:00 +21°C° 0 mm 4 mps 743 mmHg 56%
    10:00 +23°C° 0 mm 4 mps 743 mmHg 52%
    11:00 +25°C° 0 mm 4 mps 743 mmHg 47%
    12:00 +26°C° 0 mm 4 mps 743 mmHg 44%
    13:00 +27°C° 0 mm 4 mps 743 mmHg 42%
    14:00 +28°C° 0 mm 3 mps 743 mmHg 40%
    15:00 +27°C° 0 mm 3 mps 743 mmHg 47%
    16:00 +25°C° 0 mm 2 mps 742 mmHg 53%
    17:00 +24°C° 0 mm 2 mps 742 mmHg 60%
    18:00 +23°C° 0.2 mm 2 mps 742 mmHg 64%
    19:00 +20°C° 0.2 mm 2 mps 742 mmHg 68%
    20:00 +18°C° 0.2 mm 2 mps 742 mmHg 72%
    21:00 +17°C° 0 mm 2 mps 742 mmHg 74%
    22:00 +17°C° 0 mm 2 mps 742 mmHg 76%
    23:00 +16°C° 0 mm 2 mps 742 mmHg 77%

    7 June, Sunday

    Time Temperature Precipitation Wind Pressure Humidity
    00:00 +16°C° 0 mm 1 mps 742 mmHg 79%
    01:00 +16°C° 0 mm 1 mps 742 mmHg 80%
    02:00 +16°C° 0 mm 1 mps 742 mmHg 82%
    03:00 +16°C° 0 mm 1 mps 742 mmHg 82%
    04:00 +16°C° 0 mm 1 mps 742 mmHg 82%
    05:00 +16°C° 0 mm 1 mps 741 mmHg 82%
    06:00 +19°C° 0 mm 1 mps 742 mmHg 76%
    07:00 +21°C° 0 mm 1 mps 742 mmHg 71%
    08:00 +22°C° 0 mm 1 mps 742 mmHg 65%
    09:00 +24°C° 0 mm 1 mps 742 mmHg 62%
    10:00 +25°C° 0 mm 2 mps 743 mmHg 58%
    11:00 +26°C° 0 mm 3 mps 743 mmHg 54%
    12:00 +26°C° 0 mm 3 mps 743 mmHg 53%
    13:00 +27°C° 0 mm 3 mps 742 mmHg 52%
    14:00 +27°C° 0 mm 3 mps 742 mmHg 51%
    15:00 +27°C° 0 mm 3 mps 742 mmHg 53%
    16:00 +27°C° 0 mm 3 mps 742 mmHg 55%
    17:00 +27°C° 0 mm 3 mps 742 mmHg 56%
    18:00 +25°C° 0 mm 3 mps 742 mmHg 63%
    19:00 +22°C° 0 mm 3 mps 742 mmHg 70%
    20:00 +20°C° 0 mm 2 mps 742 mmHg 77%
    21:00 +20°C° 0 mm 2 mps 742 mmHg 79%
    22:00 +19°C° 0 mm 2 mps 742 mmHg 80%
    23:00 +19°C° 0 mm 2 mps 743 mmHg 82%

    8 June, Monday

    Time Temperature Precipitation Wind Pressure Humidity
    00:00 +20°C° 0 mm 1 mps 743 mmHg 82%
    01:00 +19°C° 0 mm 1 mps 742 mmHg 83%
    02:00 +19°C° 0 mm 1 mps 742 mmHg 83%
    03:00 +19°C° 0 mm 1 mps 742 mmHg 84%
    04:00 +17°C° 0 mm 0 mps 742 mmHg 84%
    05:00 +17°C° 0 mm 0 mps 742 mmHg 84%
    06:00 +19°C° 0 mm 0 mps 742 mmHg 77%
    07:00 +21°C° 0 mm 0 mps 743 mmHg 71%
    08:00 +25°C° 0 mm 1 mps 743 mmHg 65%
    09:00 +26°C° 0 mm 1 mps 743 mmHg 61%
    10:00 +27°C° 0 mm 1 mps 743 mmHg 57%
    11:00 +28°C° 0 mm 2 mps 743 mmHg 53%
    12:00 +28°C° 0 mm 2 mps 743 mmHg 54%
    13:00 +28°C° 0 mm 3 mps 743 mmHg 55%
    14:00 +28°C° 0 mm 4 mps 743 mmHg 57%
    15:00 +27°C° 0 mm 3 mps 742 mmHg 60%
    16:00 +26°C° 0 mm 3 mps 742 mmHg 63%
    17:00 +25°C° 0 mm 3 mps 742 mmHg 67%
    18:00 +24°C° 0 mm 3 mps 742 mmHg 72%
    19:00 +21°C° 0 mm 2 mps 742 mmHg 77%
    20:00 +19°C° 0 mm 2 mps 742 mmHg 82%
    21:00 +19°C° 0 mm 2 mps 742 mmHg 82%
    22:00 +19°C° 0 mm 2 mps 742 mmHg 81%
    23:00 +19°C° 0 mm 2 mps 742 mmHg 81%

    9 June, Tuesday

    Time Temperature Precipitation Wind Pressure Humidity
    00:00 +19°C° 0 mm 1 mps 742 mmHg 81%
    01:00 +19°C° 0 mm 1 mps 742 mmHg 82%
    02:00 +19°C° 0 mm 1 mps 742 mmHg 83%
    03:00 +19°C° 0 mm 1 mps 742 mmHg 83%
    04:00 +19°C° 0 mm 1 mps 742 mmHg 82%
    05:00 +19°C° 0 mm 1 mps 742 mmHg 82%
    06:00 +20°C° 0 mm 1 mps 742 mmHg 77%
    07:00 +22°C° 0 mm 1 mps 742 mmHg 71%
    08:00 +24°C° 0 mm 1 mps 743 mmHg 66%
    09:00 +25°C° 0 mm 2 mps 743 mmHg 64%
    10:00 +26°C° 0 mm 2 mps 743 mmHg 61%
    11:00 +27°C° 0 mm 2 mps 743 mmHg 58%
    12:00 +27°C° 0.1 mm 3 mps 742 mmHg 57%
    13:00 +27°C° 0.1 mm 3 mps 742 mmHg 57%
    14:00 +28°C° 0.1 mm 3 mps 742 mmHg 56%
    15:00 +27°C° 0.2 mm 3 mps 742 mmHg 59%
    16:00 +26°C° 0.2 mm 3 mps 742 mmHg 62%
    17:00 +25°C° 0.2 mm 3 mps 741 mmHg 65%
    18:00 +24°C° 0.2 mm 2 mps 741 mmHg 70%
    19:00 +21°C° 0.2 mm 2 mps 741 mmHg 74%
    20:00 +20°C° 0.2 mm 1 mps 741 mmHg 79%
    21:00 +20°C° 0.2 mm 1 mps 742 mmHg 79%
    22:00 +20°C° 0.2 mm 1 mps 742 mmHg 80%
    23:00 +19°C° 0.2 mm 1 mps 742 mmHg 80%
    Show more